Regional Weather Roundup
Issued by NWS San Diego, CA

Home | Current Version | Previous Version | Text Only | Print | Product List | Glossary On
Versions: 1 2 3 4 5 6 7 8 9 10 11 12 13 14 15 16 17 18 19 20 21 22 23 24 25 26 27 28 29 30 31 32 33 34 35 36 37 38 39 40 41 42 43 44 45 46 47 48 49 50
000
ASUS46 KSGX 281410
RWRSGX

SAN DIEGO HOURLY WEATHER ROUNDUP
NATIONAL WEATHER SERVICE SAN DIEGO CA
600 AM PST WED JAN 28 2015

NOTE: "FAIR" INDICATES FEW OR NO CLOUDS BELOW 12,000 FEET WITH NO
SIGNIFICANT WEATHER AND/OR OBSTRUCTIONS TO VISIBILITY.

CAZ042-043-060-061-PZZ750-775-281500-

GREATER SAN DIEGO AREA

CITY           SKY/WX    TMP DP  RH WIND       PRES   REMARKS
LINDBERGH FLD  MOCLDY    56  48  74 NE3       30.14S
POINT LOMA       N/A     56  50  81 N5          N/A
NATIONAL CITY    N/A     51  48  87 CALM      30.13F
CHULA VISTA      N/A     50  47  91 CALM      30.06
IMPERIAL BEACH PTCLDY    52  46  80 N6        30.13S
BROWN FIELD    PTCLDY    53  45  74 NE8       30.12S
MIRAMAR MCAS   PTCLDY    51  45  79 E8        30.12S
MONTGOMERY FLD PTCLDY    51  47  86 NE5       30.13S

$$

NORTH SAN DIEGO COUNTY

CITY           SKY/WX    TMP DP  RH WIND       PRES   REMARKS
CAMP PENDLETON PTCLDY    46  41  82 CALM      30.14S HAZE
OCEANSIDE AP   PTCLDY    49  45  86 NE7       30.12F
OCEANSIDE HBR    N/A     53  49  86 NE1       30.16S
VISTA            N/A     51  46  83 CALM      30.12S
CARLSBAD       PTCLDY    53  46  77 NE5       30.11F
DEL MAR          N/A     53  51  92 CALM      30.15S
FALLBROOK        N/A     57  51  80 S6        30.14S
ESCONDIDO        N/A     48  45  88 CALM      30.15S
SAN MARCOS       N/A     55  49  80 CALM      30.12R
POWAY            N/A     45  43  91 CALM      30.16R

$$

EAST SAN DIEGO COUNTY

CITY           SKY/WX    TMP DP  RH WIND       PRES   REMARKS
RAMONA         PTCLDY    41  39  93 SE3       30.14S
SANTEE LAKES     N/A     46  45  94 CALM      30.16R
LA MESA          N/A     54  47  77 E3        30.07S
JAMUL            N/A     49  45  87 CALM      30.13S
DESCANSO N       N/A     47  31  52 CALM      30.08
MT. LAGUNA OBS   N/A     40  34  78 E5        29.80
CAMPO            N/A     47  42  83 CALM      30.14R

$$

ORANGE COUNTY AND THE LOS ANGELES BASIN

CITY           SKY/WX    TMP DP  RH WIND       PRES   REMARKS
JOHN WAYNE AP  CLOUDY    56  48  74 CALM      30.13R
LAGUNA BEACH     N/A     48  46  93 NW2       30.09R
LAKE FOREST FR   N/A     56  38  51 CALM      30.03R
SANTA ANA        N/A     52  48  86 CALM      30.09R
HUNTINGTON BCH   N/A     51  49  93 CALM      30.15R
LOS ALAMITOS   FAIR      53  50  92 CALM      30.13R
FULLERTON      CLOUDY    54  48  80 CALM      30.12S
LONG BEACH     CLOUDY    56  47  71 NW5       30.13R
L.A. AP        CLOUDY    57  47  69 CALM      30.14R
L.A. DOWNTOWN  CLOUDY    58  46  64 CALM      30.13S

$$

THE INLAND EMPIRE

CITY           SKY/WX    TMP DP  RH WIND       PRES   REMARKS
CORONA         MOCLDY    53  49  86 SE9       30.15S
CHINO          CLOUDY    51  47  86 CALM      30.15F
ONTARIO        CLOUDY    54  45  71 N3        30.14S
RIVERSIDE AP   MOCLDY    50  46  86 E3        30.16S
RIV CYN CREST    N/A     52  51  97 S2          N/A
MORENO VALLEY    N/A     52  47  82 CALM      29.37R
MARCH ARB      PTCLDY    46  44  94 W1        30.16R
HORSETHIEF CYN   N/A     52  43  72 CALM      30.11
PERRIS           N/A     49  48  95 CALM        N/A
MENIFEE          N/A     45  44  97 CALM      30.26R
HEMET EAST       N/A     51  33  49 CALM      30.17R
FRENCH VALLEY  FAIR      45  43  93 NE5       30.17S
TEMECULA         N/A     47  46  97 CALM      30.12F

$$

SAN BERNARDINO AND RIVERSIDE COUNTY MOUNTAINS

CITY           SKY/WX    TMP DP  RH WIND       PRES   REMARKS
BIG BEAR AP    PTCLDY    23  19  86 CALM      30.30R
PINE COVE        N/A     44  13  29 CALM      30.22R

$$

SOUTHERN DESERT INCLUDING THE COACHELLA VALLEY

CITY           SKY/WX    TMP DP  RH WIND       PRES   REMARKS
PALM SPRINGS   PTCLDY    53  46  77 N7        30.20R
PALM DESERT      N/A     50  47  89 CALM      30.48R
THERMAL        PTCLDY    50  46  86 N6        30.17R
BLYTHE         PTCLDY    52  51  97 W5        30.19R
IMPERIAL AP    CLEAR     50  48  93 W5        30.17R
EL CENTRO NAS  PTCLDY    49  47  93 W6        30.17R
YUMA AZ        PTCLDY    52  49  89 CALM      30.15S

$$

UPPER DESERT

CITY           SKY/WX    TMP DP  RH WIND       PRES   REMARKS
VICTORVILLE AP CLOUDY    41  39  93 S5        30.25R FOG
HESPERIA         N/A     41  40  96 CALM      30.39R
APPLE VALLEY     N/A     40  38  91 CALM      30.29S
PALMDALE       CLOUDY    42  40  92 CALM      30.25R FOG
LANCASTER      CLOUDY    41  39  93 CALM      30.25S
EDWARDS AFB    MOCLDY    42  42 100 CALM      30.23S
DAGGETT        PTCLDY    45  42  89 W5        30.25R
29 PALMS N     MOCLDY    44  43  96 CALM      30.31R
NEEDLES        PTCLDY    52  48  86 CALM      30.21R

$$

REGIONAL REPORTS

CITY           SKY/WX    TMP DP  RH WIND       PRES   REMARKS
SANTA BARBARA  CLOUDY    52  48  86 CALM      30.14R
SANDBERG       FOG       46  42  86 E18       30.23S VSB 1/4
MT. WILSON       N/A     45  10  24 E5          N/A
LAS VEGAS NV   MOCLDY    50  44  80 S10       30.21R
PHOENIX AZ     MOCLDY    53  49  86 E7        30.15S
TIJUANA        CLEAR     54  43  66 CALM      30.13

$$

OFFSHORE ISLANDS

CITY           SKY/WX    TMP DP  RH WIND       PRES   REMARKS
CATALINA ARPT  CLOUDY    58  43  57 N7        30.16S
SAN NICOLAS IS CLOUDY   N/A N/A N/A W9        30.14S

$$

MARINE AND OFFSHORE BUOY REPORTS

STATION/POSITION SKY/WX   TEMP    WIND        PRES    SWELL
                          AIR SEA DIR/SP/G            HT/PER/DIR
                          (F)     (DEG/KT/KT) (MB)    (FT/S/D)
TANNER BANKS               62 62  360/  8/ 10 1020.3R   7/270/15
S CLEMENTE BASIN           62 62  360/ 12/ 14 1019.4F   5/280/15
SAN NICOLAS IS.               62                N/A     5/280/15
SO. S. ROSA ISLA           60 60   20/  4/  4 1020.1R   5/14
W. S. BARBARA CH           60 60   60/  4/  4 1020.1R   5/280/14
S. MONICA BASIN            60 62  350/  4/  4 1020.7R   5/260/13
S PEDRO CHANNEL               62                N/A     3/270/13
DANA POINT                    61                N/A     3/270/14
CMP PENDLETON NS              62                N/A     3/240/15
OCEANSIDE OFFSHR              62                N/A     2/250/15
TORREY PINES OTR              62                N/A     3/270/14
LA JOLLA 1                 58 62   CALM  /  1 1020.2F
MISSION BAY BUOY              62                N/A     3/240/13
SAN DIEGO BAY                 62              1020.7F
POINT LOMA SOUTH              62                N/A     3/270/14

$$



USA.gov is the U.S. government's official web portal to all federal, state and local government web resources and services.